TimeMST,TemperatureF,Dew PointF,Humidity,Sea Level PressureIn,VisibilityMPH,Wind Direction,Wind SpeedMPH,Gust SpeedMPH,PrecipitationIn,Events,Conditions,WindDirDegrees,DateUTC
12:53 AM,30.9,10.9,43,30.22,10.0,WSW,20.7,-,N/A,,Clear,240,2013-01-05 07:53:00
1:53 AM,27.0,9.0,47,30.25,10.0,WSW,12.7,-,N/A,,Clear,250,2013-01-05 08:53:00
2:53 AM,28.9,12.0,49,30.27,10.0,WSW,15.0,-,N/A,,Clear,250,2013-01-05 09:53:00
3:53 AM,30.0,10.9,45,30.27,10.0,WSW,18.4,-,N/A,,Clear,240,2013-01-05 10:53:00
4:53 AM,30.9,12.0,46,30.29,10.0,SW,17.3,23.0,N/A,,Clear,230,2013-01-05 11:53:00
6:53 AM,30.0,10.9,45,30.33,10.0,SW,19.6,-,N/A,,Clear,220,2013-01-05 13:53:00
7:53 AM,30.9,12.0,46,30.34,10.0,SW,18.4,-,N/A,,Clear,230,2013-01-05 14:53:00
8:53 AM,28.9,10.0,45,30.35,10.0,SW,20.7,29.9,N/A,,Clear,230,2013-01-05 15:53:00
10:53 AM,33.1,10.9,40,30.34,10.0,SW,24.2,35.7,N/A,,Clear,230,2013-01-05 17:53:00
11:53 AM,36.0,10.9,36,30.29,10.0,SW,26.5,36.8,N/A,,Clear,230,2013-01-05 18:53:00
12:53 PM,36.0,10.0,34,30.27,10.0,West,28.8,39.1,N/A,,Clear,260,2013-01-05 19:53:00
1:53 PM,36.0,9.0,33,30.26,10.0,WSW,28.8,42.6,N/A,,Clear,250,2013-01-05 20:53:00
2:53 PM,36.0,9.0,33,30.25,10.0,WSW,25.3,-,N/A,,Clear,240,2013-01-05 21:53:00
4:53 PM,30.0,9.0,41,30.25,10.0,West,16.1,-,N/A,,Clear,280,2013-01-05 23:53:00
5:53 PM,35.1,9.0,34,30.22,10.0,West,28.8,-,N/A,,Clear,260,2013-01-06 00:53:00
6:53 PM,28.0,9.0,45,30.23,10.0,Calm,Calm,-,N/A,,Clear,0,2013-01-06 01:53:00
7:53 PM,28.0,9.0,45,30.21,10.0,Calm,Calm,-,N/A,,Clear,0,2013-01-06 02:53:00
8:53 PM,24.1,9.0,53,30.21,10.0,East,3.5,-,N/A,,Clear,100,2013-01-06 03:53:00
9:53 PM,25.0,8.1,49,30.19,10.0,Calm,Calm,-,N/A,,Clear,0,2013-01-06 04:53:00
10:53 PM,26.1,9.0,49,30.16,10.0,Variable,3.5,-,N/A,,Clear,0,2013-01-06 05:53:00
11:53 PM,26.1,10.0,51,30.13,10.0,Variable,3.5,-,N/A,,Clear,0,2013-01-06 06:53:00